Погода в Бабино-2

Россия / Санкт-Петербург и Ленинградская область     59°12′05″N   31°26′46″E
темп.,
°C
ветер,
м/с
пор.,
м/с
влажн.,
%
обл.,
%
осадки,
мм/ч
давл.,
гПа
погр.,
м
7 августа, вс
вс700:00+15юз1297100 4.3 1016186
03:00+14зюз2696100 6.8 1017220
06:00+14з3998100 0.1 1017454
09:00+15зсз257899 0.1 1019536
12:00+19зюз35503 0.0 10191807
15:00+21з354039 0.0 10192331
18:00+20з154619 0.0 10201721
21:00+14зсз22700 0.0 102011
8 августа, пн
пн800:00+12юз117313 0.0 102110
03:00+12ююз117197 0.0 102210
06:00+12ю2473100 0.0 102384
09:00+17ююз2361100 0.0 1023324
12:00+18ююз245999 0.0 1023469
15:00+20юз3552100 0.0 1022935
18:00+19ссз115883 0.0 1022299
21:00+13ссв2596100 3.5 1023136
9 августа, вт
вт900:00+13ссв249794 0.8 1024109
03:00+12ссв1296100 0.8 102552
06:00+12с119528 0.0 102533
09:00+15с23815 0.0 1025428
12:00+19с23561 0.1 10251395
15:00+20ссв344913 0.6 10241739
18:00+19с255687 0.1 1024687
21:00+13с25732 0.1 102581
10 августа, ср
ср1000:00+11ссз22786 0.0 102513
03:00+12зсз1171100 0.0 102512
06:00+13зсз1273100 0.0 102538
09:00+16зсз136482 0.0 1025263
12:00+21з24425 0.0 10241489
15:00+21з3449100 0.0 10231124
18:00+22сз2448100 0.0 10231151
21:00+15зсз2274100 0.0 102416
11 августа, чт
чт1100:00+13з227661 0.0 102429
03:00+11з22785 0.0 102439
06:00+11зюз23795 0.0 102569
09:00+18юз35605 0.0 1024362
12:00+22юз4645100 0.0 10231386
15:00+23юз4643100 0.0 10221632
18:00+21юз375287 0.0 1021599
21:00+16юз3877100 0.0 1021143